This demonstration page uses our WeatherBlox Daily Observations layout. Learn more.

41.55636, -103.73856

Hourly Observations for June 4, 2017

Temp ( °F °C ) Dew Point ( °F °C ) Humidity (%) Winds ( mph kmh ) Pressure ( in mb ) Visibility ( mi km ) Precip ( " mm )
12:53 am 00:53 Clear 54 12.2 44 6.7 69 69 NE 6 9 30.03 1017 10 16.0934 0 0
1:53 am 01:53 Clear 52 11.1 44 6.7 75 75 NE 6 9 30.01 1016 10 16.0934 0 0
2:53 am 02:53 Clear 51 10.6 44 6.7 77 77 ESE 7 11 30 1016 10 16.0934 0 0
3:53 am 03:53 Clear 50 10 43 6.1 77 77 Calm 29.98 1015 10 16.0934 0 0
4:53 am 04:53 Clear 52 11.1 43 6.1 72 72 Calm 29.98 1015 10 16.0934 0 0
5:53 am 05:53 Sunny 48 8.9 42 5.6 80 80 N 6 9 29.99 1016 10 16.0934 0 0
6:53 am 06:53 Sunny 56 13.3 46 7.8 70 70 N 5 7 29.98 1015 10 16.0934 0 0
7:53 am 07:53 Sunny 64 17.8 48 8.9 56 56 Calm 29.97 1015 10 16.0934 0 0
8:53 am 08:53 Sunny 68 20 49 9.4 51 51 VRB 3 6 29.98 1015 10 16.0934 0 0
9:53 am 09:53 Sunny 74 23.3 48 8.9 40 40 Calm 29.95 1014 10 16.0934 0 0
10:53 am 10:53 Sunny 78 25.6 48 8.9 35 35 S 5 7 29.94 1014 10 16.0934 0 0
11:53 am 11:53 Sunny 80 26.7 44 6.7 28 28 ESE 8 13 29.93 1013 10 16.0934 0 0
12:53 pm 12:53 Sunny 81 27.2 45 7.2 28 28 SE 14 22 29.91 1013 10 16.0934 0 0
1:53 pm 13:53 Sunny 82 27.8 42 5.6 24 24 SE 8 13 29.89 1012 10 16.0934 0 0
2:53 pm 14:53 Sunny 84 28.9 43 6.1 24 24 ESE 10 17 29.87 1012 10 16.0934 0 0
3:53 pm 15:53 Sunny 82 27.8 45 7.2 27 27 ESE 12 19 29.87 1011 10 16.0934 0 0
4:53 pm 16:53 Sunny 85 29.4 45 7.2 25 25 ESE 12 19 29.83 1010 10 16.0934 0 0
5:53 pm 17:53 Sunny 83 28.3 45 7.2 26 26 ESE 15 24 29.83 1010 10 16.0934 0 0
6:53 pm 18:53 Sunny 81 27.2 46 7.8 29 29 ESE 12 19 29.82 1010 10 16.0934 0 0
7:53 pm 19:53 Sunny 77 25 50 10 39 39 ESE 12 19 29.82 1010 10 16.0934 0 0
8:53 pm 20:53 Clear 70 21.1 50 10 49 49 ESE 7 11 29.84 1011 10 16.0934 0 0
9:53 pm 21:53 Clear 65 18.3 49 9.4 56 56 ESE 7 11 29.85 1011 10 16.0934 0 0
10:53 pm 22:53 Clear 60 15.6 49 9.4 67 67 E 8 13 29.86 1011 10 16.0934 0 0
11:53 pm 23:53 Clear 60 15.6 48 8.9 65 65 E 6 9 29.85 1011 10 16.0934 0 0

Powered by AerisWeather